Date,TemperatureHighF,TemperatureAvgF,TemperatureLowF,DewpointHighF,DewpointAvgF,DewpointLowF,HumidityHigh,HumidityAvg,HumidityLow,PressureMaxIn,PressureMinIn,WindSpeedMaxMPH,WindSpeedAvgMPH,GustSpeedMaxMPH,PrecipitationSumIn
2013-1-1,36,29,17,27,16,4,79,58,39,30.00,29.74,27,4,28,0.00
2013-1-2,28,17,7,16,8,-4,96,67,50,30.21,29.96,20,3,28,0.00
2013-1-3,22,12,3,11,0,-6,90,62,30,30.22,30.08,17,2,20,0.00
2013-1-4,38,25,11,24,19,9,100,78,51,30.08,29.85,14,2,14,0.01
2013-1-5,40,31,19,24,20,15,100,67,38,30.34,29.89,23,3,29,0.01
2013-1-6,41,30,20,29,26,20,100,85,56,30.31,29.99,12,1,12,0.03
2013-1-7,36,27,17,30,21,12,100,81,44,30.48,30.02,26,2,26,0.00
2013-1-8,45,31,17,27,24,17,100,81,45,30.44,30.30,15,2,15,0.00
2013-1-9,43,34,20,35,28,20,100,81,53,30.50,30.04,13,2,13,0.00
2013-1-10,45,40,29,29,24,20,85,54,41,30.61,30.06,39,5,39,0.00
2013-1-11,41,32,22,37,29,22,100,87,62,30.60,30.30,8,1,10,0.13
2013-1-12,43,40,37,43,40,37,100,100,100,30.30,30.19,9,0,9,0.03
2013-1-13,50,46,41,50,46,41,100,100,97,30.21,30.02,12,1,12,0.00
2013-1-14,60,51,40,53,42,24,100,74,38,30.31,29.89,26,3,26,0.00
2013-1-15,42,37,32,26,24,22,76,60,46,30.38,30.29,14,3,14,0.00
2013-1-16,33,31,28,32,30,23,100,93,69,30.32,29.89,12,2,12,0.00
2013-1-17,41,32,25,36,25,7,100,79,42,30.17,29.89,21,3,21,0.27
2013-1-18,28,19,14,8,0,-7,68,44,28,30.52,30.14,30,5,32,0.00
2013-1-19,46,34,18,30,20,5,81,57,40,30.46,29.93,17,3,23,0.12
2013-1-20,53,39,27,32,24,10,81,55,29,29.99,29.56,27,4,30,0.01
2013-1-21,29,24,17,22,9,1,100,57,33,30.17,29.87,25,3,28,0.00
2013-1-22,24,19,11,21,10,-1,100,71,37,30.16,29.84,25,3,29,0.00
2013-1-23,13,9,4,6,-7,-14,82,49,29,30.22,30.14,28,4,28,0.00
2013-1-24,17,8,-1,-8,-10,-12,70,45,27,30.29,30.12,30,5,39,0.00
2013-1-25,22,14,5,10,-6,-10,75,41,24,30.37,30.14,25,3,27,0.00
2013-1-26,21,16,10,14,3,-9,100,63,28,30.29,30.08,22,4,22,0.00
2013-1-27,28,19,11,6,0,-6,77,47,23,30.54,30.29,28,4,28,0.00
2013-1-28,32,23,15,25,11,-3,100,65,28,30.52,30.09,11,1,11,0.00
2013-1-29,36,30,23,33,27,23,100,92,77,30.25,30.10,11,2,11,0.11
2013-1-30,60,47,32,59,46,32,100,98,91,30.22,29.48,17,2,17,0.24
2013-1-31,61,47,29,61,37,15,100,72,37,29.64,28.96,45,5,45,0.26
2013-2-1,31,27,22,20,9,3,73,48,32,30.09,29.64,29,4,30,0.00
2013-2-4,29,23,16,18,8,3,100,55,32,29.99,29.80,24,4,25,0.00
2013-2-5,29,23,17,22,10,5,94,58,39,30.09,29.99,11,2,12,0.00
2013-2-6,39,29,22,26,19,3,100,70,41,30.36,29.99,17,2,17,0.02
2013-2-7,26,21,15,8,-1,-7,53,38,25,30.60,30.36,22,4,22,0.00
2013-2-8,26,20,16,25,18,8,100,93,51,30.56,29.74,44,8,44,0.00
2013-2-9,20,17,14,20,16,11,100,98,86,30.25,29.69,37,8,44,0.00
2013-2-10,132,18,7,100,14,-6,100,88,32,30.48,20.30,67,2,114,0.00
2013-2-11,38,27,11,38,26,10,100,98,79,30.42,29.66,7,1,7,0.27
2013-2-12,45,38,31,34,30,24,100,76,47,29.91,29.64,19,2,24,0.00
2013-2-13,44,35,24,28,24,19,100,69,41,29.93,29.78,14,2,19,0.00
2013-2-14,42,34,26,27,23,18,99,65,38,30.05,29.76,15,2,15,0.00
2013-2-15,52,37,23,35,29,23,100,78,42,30.05,29.92,13,2,13,0.00
2013-2-16,39,34,28,33,26,16,100,75,51,30.01,29.79,16,4,18,0.01
2013-2-17,30,21,15,21,11,2,100,67,44,29.79,29.45,46,7,46,0.01
2013-2-18,29,21,13,4,1,-6,62,43,22,30.21,29.73,32,5,33,0.00
2013-2-19,48,35,19,42,22,4,100,63,32,30.22,29.61,13,2,13,0.28
2013-2-20,40,32,24,40,22,11,100,67,41,29.83,29.57,22,3,25,0.01
2013-2-21,30,25,22,17,13,6,76,61,40,30.25,29.82,28,4,33,0.01
2013-2-22,40,31,22,26,20,15,90,66,37,30.46,30.25,16,3,16,0.00
2013-2-23,39,34,29,34,30,26,100,84,66,30.40,29.99,13,2,13,0.02
2013-2-24,37,33,30,37,33,30,100,100,100,29.99,29.76,17,4,18,0.33
2013-2-25,41,34,28,34,31,25,100,90,61,30.30,29.95,11,2,11,0.18
2013-2-26,43,35,27,35,30,26,100,83,59,30.39,30.23,10,2,10,0.00
2013-2-27,41,38,35,41,38,30,100,97,81,30.24,29.61,25,6,25,1.20
2013-2-28,47,39,33,38,35,32,100,87,55,29.68,29.57,11,2,16,0.01
2013-3-1,40,37,34,35,31,28,99,79,64,29.73,29.59,14,3,16,0.00
2013-3-2,44,37,28,30,27,24,96,68,52,29.73,29.65,20,3,21,0.00
2013-3-3,41,35,31,34,29,26,91,77,65,29.70,29.61,18,3,21,0.00
2013-3-4,40,34,29,30,24,20,92,70,48,29.80,29.62,25,5,27,0.00
2013-3-5,46,36,30,35,28,22,99,73,48,30.13,29.80,18,4,19,0.00
2013-3-6,39,36,33,36,34,28,100,95,71,30.18,30.11,25,7,26,0.20
2013-3-7,33,32,30,33,31,27,100,97,85,30.16,30.07,25,8,26,0.06
2013-3-8,43,34,29,34,27,20,100,80,42,30.21,30.02,27,6,28,0.20
2013-3-9,47,36,24,30,24,18,100,63,40,30.43,30.21,18,4,19,0.10
2013-3-10,45,32,18,33,27,18,100,84,53,30.48,30.36,15,2,16,0.01
2013-3-11,56,43,33,41,35,28,100,76,37,30.38,30.18,12,3,12,0.00
2013-3-12,55,49,41,54,48,40,100,96,83,30.21,29.75,14,3,14,0.25
2013-3-13,53,45,32,53,30,19,100,60,31,29.83,29.73,19,3,19,0.00
2013-3-14,39,31,22,26,16,6,86,55,33,29.90,29.75,28,3,28,0.00
2013-3-15,43,29,18,30,12,1,92,51,18,29.93,29.67,38,4,40,0.00
2013-3-16,40,33,26,30,13,5,91,45,24,29.95,29.71,19,3,21,0.00
2013-3-17,36,28,18,20,9,0,100,50,22,30.39,29.95,26,4,26,0.00
2013-3-18,42,28,15,28,7,-5,93,44,17,30.52,30.31,15,3,19,0.00
2013-3-19,34,31,26,34,31,26,100,100,93,30.32,29.69,27,5,27,0.33
2013-3-20,39,30,23,26,22,18,100,75,44,29.87,29.75,20,2,20,0.28
2013-3-21,42,30,18,30,21,9,100,75,31,29.88,29.65,8,2,9,0.15
2013-3-22,43,34,27,29,19,12,100,57,30,29.78,29.66,15,2,18,0.03
2013-3-23,42,35,25,22,19,15,87,55,34,29.82,29.67,26,4,28,0.03
2013-3-24,47,39,30,28,22,18,75,53,33,29.87,29.77,22,4,22,0.00
2013-3-25,42,38,28,34,31,26,100,76,66,29.78,29.59,18,5,19,0.00
2013-3-26,51,44,35,28,20,14,74,40,23,29.83,29.60,23,5,25,0.00
2013-3-27,54,42,25,34,24,13,100,55,26,29.92,29.76,25,4,26,0.00
2013-3-28,49,42,37,37,33,26,98,72,44,30.05,29.92,18,3,19,0.03
2013-3-29,56,44,28,42,32,24,100,66,33,30.09,29.99,15,2,16,0.01
2013-3-30,56,46,34,33,24,10,93,49,17,30.15,30.03,15,3,17,0.00
2013-3-31,64,46,25,42,26,14,100,57,18,30.18,29.81,19,3,22,0.01
2013-4-1,64,48,35,44,35,8,100,67,27,29.83,29.52,30,4,35,0.21
2013-4-2,42,35,27,16,10,5,55,37,22,29.97,29.83,35,4,35,0.17
2013-4-3,47,37,28,17,9,1,58,33,15,30.19,29.95,30,5,32,0.00
2013-4-4,58,41,28,17,11,3,62,34,12,30.33,30.09,18,3,25,0.00
2013-4-7,44,34,25,22,19,15,88,56,35,30.37,30.34,11,2,12,0.00
2013-4-8,50,45,40,43,40,37,100,86,64,30.14,29.99,9,2,10,0.00
2013-4-9,58,49,45,48,45,43,98,86,69,30.07,29.93,13,2,16,0.04
2013-4-10,61,51,45,51,46,40,100,84,52,30.06,29.89,15,2,15,0.50
2013-4-11,53,47,43,48,38,24,100,74,38,30.19,29.87,18,3,18,0.09
2013-4-12,43,38,35,38,34,27,100,86,53,30.24,29.85,26,6,28,0.36
2013-4-13,53,43,35,42,36,32,100,80,48,29.97,29.82,21,4,22,0.08
2013-4-14,57,47,40,41,32,22,98,61,26,30.25,29.95,21,3,21,0.00
2013-4-15,60,46,29,39,32,24,100,64,27,30.43,30.25,19,2,19,0.00
2013-4-16,69,54,36,52,41,33,100,66,32,30.44,30.07,25,4,26,0.00
2013-4-17,66,58,48,54,34,24,88,44,21,30.37,30.06,22,4,24,0.00
2013-4-18,63,53,38,43,32,23,80,49,27,30.47,30.18,15,4,15,0.00
2013-4-19,78,65,53,64,57,42,100,77,45,30.19,29.65,22,4,24,0.00
2013-4-20,68,54,44,67,40,21,100,64,31,30.24,29.61,30,4,30,0.47
2013-4-21,45,38,33,22,19,16,59,46,37,30.52,30.24,22,4,26,0.00
2013-4-22,53,45,38,35,30,20,76,58,29,30.76,30.65,30,5,34,0.00
2013-4-23,42,40,37,42,38,31,100,93,73,30.66,30.19,24,5,25,0.04
2013-4-24,74,51,41,48,44,41,100,81,32,30.19,29.80,19,5,20,0.01
2013-4-25,66,57,44,55,35,22,100,50,20,30.31,29.83,26,4,26,0.03
2013-4-26,61,50,36,44,34,26,94,58,29,30.47,30.31,20,3,20,0.00
2013-4-27,68,54,38,44,36,28,100,57,27,30.46,30.30,17,2,17,0.00
2013-4-28,73,56,38,40,35,28,100,52,20,30.37,30.24,17,2,17,0.00
2013-4-29,75,59,45,46,36,24,89,46,25,30.30,30.19,20,3,20,0.00
2013-4-30,74,59,44,36,27,14,72,35,11,30.41,30.28,14,2,14,0.00
2013-5-1,76,57,38,40,33,22,99,48,17,30.50,30.41,12,2,13,0.00
2013-5-2,81,56,41,46,39,28,100,61,16,30.54,30.34,27,2,27,0.00
2013-5-3,60,51,43,42,40,35,91,67,44,30.56,30.42,19,4,19,0.00
2013-5-4,61,50,39,45,37,22,100,67,24,30.43,30.33,19,3,21,0.00
2013-5-5,68,51,36,41,38,32,100,68,33,30.39,30.27,19,3,21,0.00
2013-5-6,75,53,37,51,43,34,100,76,23,30.33,30.16,12,2,15,0.00
2013-5-7,82,65,43,59,50,41,100,66,25,30.21,30.08,13,2,13,0.00
2013-5-8,79,64,53,67,58,51,100,82,48,30.21,30.08,21,3,21,0.07
2013-5-9,66,59,56,62,59,56,100,97,74,30.08,29.91,12,2,17,0.60
2013-5-10,83,66,56,61,56,48,100,75,31,29.98,29.89,11,2,11,0.00
2013-5-11,72,64,59,64,60,54,100,85,65,29.92,29.70,19,2,22,0.16
2013-5-12,75,62,50,63,50,26,100,71,32,29.83,29.55,25,2,25,0.07
2013-5-13,61,52,42,32,28,23,66,42,24,30.05,29.83,19,3,20,0.00
2013-5-14,60,51,40,36,29,22,76,46,24,30.08,29.98,25,4,25,0.00
2013-5-15,72,55,34,53,38,24,100,63,19,30.10,29.70,15,2,15,0.00
2013-5-16,81,67,46,52,38,27,100,46,15,29.83,29.61,30,3,30,0.00
2013-5-17,70,60,50,46,39,32,86,48,26,30.25,29.83,25,4,25,0.00
2013-5-18,76,60,42,53,43,30,100,62,20,30.31,30.23,21,2,23,0.00
2013-5-19,73,58,51,56,51,45,100,82,41,30.37,30.25,22,2,22,0.21
2013-5-20,83,68,55,67,59,55,100,78,42,30.25,29.89,14,2,14,0.12
2013-5-21,72,59,51,63,57,51,100,93,67,30.06,29.89,21,3,21,0.09
2013-5-22,64,55,50,57,53,50,100,94,77,30.11,29.91,10,2,13,0.83
2013-5-23,79,64,53,69,61,53,100,90,65,29.96,29.81,18,2,21,0.15
2013-5-24,75,63,50,70,61,49,100,92,69,29.86,29.65,19,2,19,0.55
2013-5-25,52,48,42,52,48,39,100,98,87,29.85,29.73,23,5,26,0.40
2013-5-26,59,48,40,43,38,34,100,72,41,30.11,29.73,22,4,27,0.09
2013-5-27,73,58,38,48,37,28,100,54,21,30.21,30.07,19,2,23,0.09
2013-5-28,78,61,42,54,43,32,100,61,20,30.26,30.17,10,2,11,0.00
2013-5-29,69,62,54,66,60,52,100,94,80,30.21,29.99,10,1,10,0.50
2013-5-30,90,76,59,68,62,54,100,68,32,30.06,29.97,24,2,25,0.01
2013-5-31,97,82,63,68,62,56,100,58,26,30.09,29.89,23,2,23,0.00
2013-6-1,97,84,67,68,62,53,92,54,25,29.95,29.80,16,2,17,0.00
2013-6-2,93,81,70,74,66,58,100,64,31,29.86,29.67,24,3,24,0.04
2013-6-3,82,70,62,69,62,45,100,78,43,29.85,29.72,17,2,17,0.46
2013-6-4,72,64,54,47,41,36,63,45,30,30.11,29.83,27,4,29,0.00
2013-6-5,78,65,49,52,45,36,97,53,24,30.17,30.08,21,2,22,0.00
2013-6-6,80,66,53,56,50,44,91,61,31,30.19,30.10,17,2,17,0.00
2013-6-7,59,55,53,57,55,52,100,98,84,30.13,29.84,14,3,15,1.74
2013-6-8,79,64,53,62,57,53,100,81,51,29.99,29.64,21,4,24,1.05
2013-6-9,81,70,55,61,54,46,100,64,32,30.17,29.99,26,2,28,0.00
2013-6-10,75,63,55,60,57,52,100,82,50,30.20,30.03,11,1,12,0.37
2013-6-11,62,58,55,59,56,55,100,97,80,30.04,29.59,16,3,17,0.98
2013-6-12,71,63,56,60,54,50,100,76,51,29.81,29.57,31,4,34,0.01
2013-6-13,73,60,51,62,55,49,100,87,48,29.81,29.71,8,1,14,0.42
2013-6-14,77,62,53,61,54,45,100,78,34,29.75,29.67,12,2,12,0.75
2013-6-15,81,69,55,57,45,34,100,49,20,29.93,29.75,27,3,27,0.00
2013-6-16,81,68,53,61,53,42,98,64,29,29.94,29.69,17,1,17,0.00
2013-6-17,89,71,58,72,59,52,100,73,30,29.90,29.75,28,2,31,0.12
2013-6-18,77,63,58,63,59,53,100,89,47,29.95,29.89,19,2,19,0.26
2013-6-19,78,66,55,58,51,38,100,64,25,30.15,29.92,15,2,16,0.02
2013-6-20,85,68,49,58,50,40,100,60,24,30.25,30.15,24,1,24,0.00
2013-6-21,87,74,57,64,55,43,94,58,22,30.25,30.15,24,2,26,0.00
2013-6-22,88,76,62,65,60,55,99,63,33,30.21,30.07,22,2,22,0.00
2013-6-23,95,80,66,71,64,56,81,59,38,30.15,29.93,22,2,22,0.00
2013-6-24,97,81,70,78,67,60,100,68,32,30.00,29.82,34,3,34,1.01
2013-6-25,94,81,69,74,67,60,100,68,35,29.91,29.69,25,2,28,0.45
2013-6-26,86,74,63,74,68,62,100,87,47,29.87,29.71,19,2,22,0.53
2013-6-27,71,65,60,67,64,60,100,97,84,29.88,29.77,10,2,13,0.15
2013-6-28,85,70,58,72,66,58,100,89,58,29.78,29.45,32,3,32,0.33
2013-6-29,88,78,71,72,68,62,100,75,43,29.70,29.51,24,2,27,0.33
2013-6-30,92,80,67,73,68,62,100,72,42,29.92,29.70,12,2,12,0.00
2013-7-1,83,74,71,78,72,68,100,92,62,30.06,29.92,12,1,14,1.46
2013-7-2,86,70,60,77,67,60,100,92,57,30.23,30.05,14,2,15,0.01
2013-7-3,91,77,61,74,67,58,100,75,46,30.21,30.09,24,2,28,0.00
2013-7-4,97,85,72,75,71,66,100,66,40,30.17,30.04,28,2,28,0.00
2013-7-5,97,87,75,74,71,67,93,62,39,30.13,29.99,21,2,23,0.00
2013-7-6,93,84,76,75,68,60,96,60,39,30.05,29.93,28,3,32,0.00
2013-7-7,95,82,67,76,66,56,93,63,35,30.00,29.87,10,1,17,0.00
2013-7-8,85,75,65,74,69,64,100,82,58,30.06,29.89,16,2,17,0.68
2013-7-9,75,69,65,67,65,63,100,89,70,30.10,30.04,9,2,10,0.00
2013-7-10,87,74,66,77,70,64,100,90,58,30.07,29.76,14,2,15,0.01
2013-7-11,86,77,72,77,72,66,100,88,59,29.91,29.74,13,1,16,0.07
2013-7-12,78,72,67,72,58,50,100,64,39,30.19,29.91,26,3,27,0.00
2013-7-13,83,73,65,71,64,57,97,75,52,30.29,30.19,16,2,16,0.00
2013-7-14,91,81,69,76,70,62,100,73,39,30.28,30.17,19,2,19,0.00
2013-7-15,92,81,69,74,69,63,100,72,40,30.19,30.04,20,2,20,0.00
2013-7-16,94,81,68,74,66,59,100,65,35,30.15,30.06,23,2,25,0.00
2013-7-17,98,85,70,75,68,60,100,62,31,30.16,29.93,17,1,17,0.00
2013-7-18,95,84,75,75,69,59,90,65,31,29.97,29.91,33,2,33,0.00
2013-7-19,99,86,72,78,71,65,99,64,34,29.93,29.65,29,3,32,0.00
2013-7-20,95,85,76,76,69,61,83,59,38,29.78,29.60,20,3,21,0.00
2013-7-21,87,77,66,68,63,52,97,65,36,29.98,29.78,13,2,14,0.00
2013-7-22,84,74,68,70,67,63,100,82,54,30.00,29.88,19,3,23,0.00
2013-7-23,78,72,68,77,71,67,100,97,81,29.88,29.51,9,1,11,1.70
2013-7-24,89,77,65,77,65,50,100,69,40,29.97,29.56,22,3,25,0.00
2013-7-25,65,61,58,60,54,48,100,77,58,30.11,29.97,16,3,19,0.42
2013-7-26,72,65,60,69,64,60,100,95,77,30.07,29.91,17,3,18,0.27
2013-7-27,89,74,59,69,61,54,100,69,34,30.03,29.95,11,1,11,0.01
2013-7-28,79,70,65,70,67,65,100,89,68,30.02,29.96,22,2,22,0.00
2013-7-29,88,74,66,76,69,62,100,87,44,30.03,29.93,12,1,15,0.22
2013-7-30,83,73,62,69,58,48,100,66,33,30.09,29.99,19,2,20,0.00
2013-7-31,86,73,60,65,58,47,100,67,31,30.12,30.02,17,1,17,0.00
2013-8-1,89,73,61,68,63,56,100,75,34,30.04,29.87,12,1,14,0.02
2013-8-2,85,72,64,70,62,54,100,76,36,29.87,29.74,16,2,17,1.19
2013-8-3,83,74,64,67,61,56,100,65,42,29.83,29.74,13,3,16,1.04
2013-8-4,81,69,58,64,56,50,100,68,36,29.88,29.74,28,2,28,0.02
2013-8-5,76,66,56,54,45,32,89,51,21,30.05,29.88,24,4,32,0.00
2013-8-6,83,67,49,59,50,40,100,62,24,30.15,30.05,10,1,14,0.00
2013-8-7,85,70,55,63,56,46,100,66,28,30.19,30.09,14,1,15,0.00
2013-8-8,85,74,64,71,65,53,100,77,55,30.12,29.97,14,2,15,0.02
2013-8-9,75,72,71,75,72,69,100,98,91,30.01,29.71,11,1,12,1.00
2013-8-10,84,74,64,71,59,46,100,65,29,30.00,29.77,24,3,27,0.00
2013-8-11,82,69,54,62,53,45,100,63,31,30.08,29.97,18,2,22,0.00
2013-8-12,86,72,58,64,56,46,100,65,29,30.03,29.89,19,2,20,0.00
2013-8-13,77,69,65,71,65,60,100,86,57,29.91,29.68,9,1,10,0.02
2013-8-14,75,68,61,65,52,45,100,59,36,29.95,29.65,33,4,36,0.00
2013-8-15,80,66,51,56,50,42,100,61,27,30.11,29.95,18,2,22,0.00
2013-8-16,83,68,52,61,53,45,100,66,29,30.19,30.09,20,2,24,0.00
2013-8-17,82,69,55,60,57,51,100,70,40,30.27,30.19,10,1,10,0.00
2013-8-18,85,71,57,63,59,53,100,69,36,30.27,30.07,15,1,15,0.00
2013-8-19,83,72,58,65,59,54,100,67,38,30.08,29.92,16,2,18,0.00
2013-8-20,87,72,61,68,62,55,100,75,36,30.08,29.96,12,1,13,0.00
2013-8-21,92,77,61,67,62,57,100,67,33,30.13,29.99,20,2,21,0.00
2013-8-22,92,77,63,71,66,57,100,72,33,30.03,29.79,18,2,19,0.00
2013-8-23,80,73,63,70,57,46,95,61,33,30.13,29.80,19,3,22,0.00
2013-8-24,80,66,51,54,47,38,100,55,24,30.34,30.13,24,2,25,0.00
2013-8-25,86,69,50,58,50,44,100,59,25,30.36,30.17,19,2,20,0.00
2013-8-26,82,73,65,68,61,54,87,69,49,30.17,29.85,21,2,21,0.00
2013-8-27,72,70,69,69,68,66,98,92,85,29.85,29.82,5,0,5,0.00
2013-9-28,54,52,50,54,52,50,100,100,99,30.30,30.28,0,0,0,0.00
2013-9-29,69,55,47,56,49,39,100,84,39,30.29,30.13,10,1,12,0.00
2013-9-30,68,55,47,54,49,39,100,84,42,30.15,29.97,9,1,9,0.00
2013-10-1,75,59,45,60,50,44,100,79,34,29.99,29.83,13,1,13,0.00
2013-10-2,80,64,50,60,56,50,100,77,43,29.94,29.79,19,2,19,0.00
2013-10-3,77,62,51,60,52,39,100,75,27,30.08,29.94,17,1,17,0.00
2013-10-4,63,58,51,61,56,50,100,94,66,30.10,30.03,9,0,9,0.18
2013-10-5,69,61,56,59,56,52,100,85,60,30.13,30.06,12,1,12,0.00
2013-10-6,60,56,53,59,56,53,100,99,89,30.26,30.12,14,2,19,0.47
2013-10-7,78,66,56,71,63,56,100,91,60,30.15,29.79,21,2,24,0.19
2013-10-8,64,57,45,58,44,36,100,67,35,30.40,29.90,22,3,22,0.00
2013-10-9,62,50,40,49,44,39,100,82,47,30.49,30.39,16,2,16,0.00
2013-10-10,44,42,41,44,42,41,100,100,100,30.40,30.37,3,0,3,0.00
2013-10-11,72,60,41,52,45,33,100,63,25,30.37,30.08,8,2,14,0.00
2013-10-12,58,53,41,57,52,41,100,97,89,30.41,30.17,11,2,16,0.00
2013-10-13,61,51,41,51,47,41,100,87,49,30.46,30.37,9,2,14,0.00
2013-10-14,66,50,36,52,42,34,100,81,32,30.43,30.24,5,0,9,0.00
2013-10-15,63,56,51,56,52,48,100,86,67,30.27,30.19,6,1,11,0.00
2013-10-16,62,56,50,56,54,49,100,92,65,30.20,29.93,6,1,8,0.00
2013-10-17,74,61,52,61,55,50,100,84,43,29.93,29.71,10,1,11,0.00
2013-10-18,68,60,41,61,50,39,100,74,37,30.37,29.60,20,2,20,0.08
2013-10-19,69,54,38,47,41,36,100,68,33,30.37,29.76,6,1,10,0.00
2013-10-20,61,52,40,51,40,31,100,67,32,30.03,29.69,19,2,22,0.00
2013-10-21,66,49,34,46,39,34,100,73,33,30.13,30.00,7,1,15,0.00
2013-10-22,65,52,41,51,45,37,100,77,52,30.37,29.70,10,1,16,0.00
2013-10-23,54,45,34,41,35,30,100,69,41,30.37,29.60,6,1,11,0.00
2013-10-24,54,45,36,37,30,23,91,57,33,29.89,29.64,15,3,21,0.00
2013-10-25,49,41,31,36,29,24,100,66,38,30.17,29.89,18,2,19,0.00
2013-10-26,55,41,26,41,28,22,100,67,28,30.37,29.89,11,2,18,0.00
2013-10-27,56,47,36,42,34,27,100,64,38,30.37,29.83,15,2,21,0.02
2013-10-28,58,41,29,41,31,23,100,70,37,30.38,30.08,11,2,22,0.02
2013-10-29,48,36,23,41,27,14,100,76,29,30.48,30.37,7,1,13,0.00
2013-10-30,48,40,28,40,36,28,100,85,60,30.41,30.21,4,0,8,0.06
2013-10-31,60,45,29,60,45,29,100,98,83,30.27,29.80,6,1,10,0.14
2013-11-1,71,64,56,64,58,52,100,80,60,29.79,29.43,20,4,23,0.02
2013-11-2,65,54,44,54,44,37,100,74,35,29.74,29.59,9,1,16,0.00
2013-11-3,51,41,31,48,28,14,89,62,31,30.46,29.74,14,4,21,0.00
2013-11-4,41,32,23,24,18,10,100,59,27,30.76,30.46,12,2,19,0.00
2013-11-5,50,36,21,41,27,18,100,76,35,30.77,30.37,9,1,10,0.00
2013-11-6,61,50,38,50,40,32,100,70,41,30.54,30.04,12,3,21,0.00
2013-11-7,65,54,40,59,50,35,100,87,68,30.37,29.67,12,3,35,0.13
2013-11-8,48,39,30,41,27,21,100,62,42,30.37,29.84,15,3,24,0.00
2013-11-9,44,38,28,28,23,18,79,54,36,30.23,30.06,11,2,21,0.00
2013-11-10,53,45,39,46,36,27,100,72,51,30.37,29.74,9,2,16,0.06
2013-11-11,51,44,39,41,29,21,100,57,32,30.37,29.86,25,3,39,0.01
2013-11-12,48,36,25,41,27,16,100,72,49,30.37,29.89,13,3,32,0.08
2013-11-13,41,30,22,41,19,9,100,66,36,30.37,30.19,13,2,28,0.00
2013-11-14,50,37,26,41,22,15,100,56,30,30.37,30.03,12,2,21,0.00
2013-11-15,60,41,25,41,21,12,100,52,16,30.37,30.09,9,1,12,0.00
2013-11-16,58,43,32,33,29,21,94,62,24,30.36,30.20,7,1,10,0.00
2013-11-17,54,43,29,54,41,29,100,94,77,30.37,29.86,8,1,10,0.00
2013-11-18,64,58,48,62,47,29,100,72,39,29.85,29.52,15,3,25,0.21
2013-11-19,48,39,31,31,20,14,60,48,35,30.30,29.66,25,5,30,0.00
2013-11-20,41,32,21,41,14,10,100,51,29,30.68,30.30,15,4,27,0.00
2013-11-21,46,32,17,41,19,12,100,65,27,30.69,30.37,9,1,14,0.00
2013-11-22,44,41,37,44,39,25,100,93,62,30.40,29.83,6,1,11,0.23
2013-11-23,45,38,28,45,26,7,100,64,36,30.37,29.78,20,4,30,0.01
2013-11-24,41,24,19,41,6,-4,100,48,28,30.37,29.81,37,7,48,0.00
2013-11-25,41,23,15,41,0,-12,100,38,17,30.40,30.23,18,4,31,0.00
2013-11-26,38,34,29,35,22,13,100,64,45,30.37,30.09,7,2,11,0.12
2013-11-27,62,50,35,62,50,33,100,98,81,30.37,29.21,21,5,32,1.44
2013-11-28,38,30,22,34,16,3,86,57,32,30.48,29.46,23,4,36,0.00
2013-11-29,41,24,18,41,10,1,100,57,30,30.79,30.37,13,3,21,0.00
2013-11-30,41,23,12,41,15,8,100,73,44,30.86,30.37,9,2,12,0.00
2013-12-1,41,34,31,41,32,23,100,92,73,30.46,30.05,7,2,10,0.15
2013-12-2,41,38,36,41,38,36,100,100,100,30.37,29.95,8,2,13,0.01
2013-12-3,47,39,31,37,34,30,100,86,55,29.99,29.87,10,3,15,0.00
2013-12-4,42,33,25,31,27,24,100,82,51,30.25,29.99,14,1,16,0.00
2013-12-5,44,38,26,43,36,26,100,95,82,30.25,29.93,6,1,9,0.01
2013-12-6,53,46,33,53,43,31,100,89,57,30.20,29.86,15,2,19,0.20
2013-12-7,37,32,23,36,28,18,100,84,58,30.50,30.12,12,3,20,0.19
2013-12-8,41,25,18,41,18,14,100,76,54,30.64,30.37,10,1,10,0.00
2013-12-9,41,32,24,41,30,15,100,95,58,30.54,29.92,8,2,14,0.37
2013-12-10,41,31,22,41,28,14,100,92,66,30.37,29.81,11,2,23,0.00
2013-12-11,32,24,18,20,17,13,100,77,48,30.23,30.04,21,3,21,0.00
2013-12-12,41,18,12,41,8,-3,100,68,32,30.37,30.11,24,3,30,0.00
2013-12-13,41,19,11,41,11,2,100,70,50,30.47,30.03,18,4,25,0.00
2013-12-14,41,12,7,41,5,-4,100,74,53,30.69,30.27,15,5,20,0.00
2013-12-15,33,24,15,33,24,15,100,100,100,30.25,29.49,17,3,35,0.00
2013-12-16,24,19,13,21,17,12,100,91,65,30.27,29.79,27,2,27,0.00
2013-12-17,41,12,2,41,10,2,100,93,67,30.38,30.05,10,3,17,0.00
2013-12-18,41,23,15,41,21,15,100,93,65,30.37,29.93,17,3,27,0.00
2013-12-19,41,30,22,41,25,22,100,83,52,30.37,29.99,7,2,17,0.07
2013-12-20,52,38,27,41,31,26,100,78,47,30.37,29.93,8,1,10,0.49
2013-12-21,57,46,36,47,40,32,100,81,60,30.37,29.86,7,1,14,0.03
2013-12-22,46,37,32,46,37,32,100,100,97,30.09,29.85,9,3,15,0.07
2013-12-23,35,33,31,35,33,31,100,100,100,30.15,30.03,7,2,9,0.53
2013-12-24,41,31,24,41,23,12,100,72,47,30.37,30.11,14,4,18,0.00
2013-12-25,41,16,11,41,6,-1,100,63,44,30.62,30.26,24,4,53,0.00
2013-12-26,41,22,14,41,20,12,100,92,76,30.58,30.14,7,1,10,0.01
2013-12-27,33,23,11,25,18,11,100,85,62,30.32,30.24,7,1,16,0.05
2013-12-28,45,31,20,30,25,20,100,79,47,30.27,30.01,6,2,11,0.03
2013-12-29,42,34,25,38,32,25,100,92,61,30.09,29.49,15,2,26,1.16
2013-12-30,42,31,15,41,24,7,100,75,45,30.37,29.56,15,4,28,0.01
2013-12-31,21,15,9,15,4,-4,96,63,37,30.25,30.10,10,2,13,0.01
2014-1-1,25,19,14,13,8,4,82,63,41,30.46,30.23,10,2,20,0.00
2014-1-2,19,8,-2,17,8,-2,100,98,68,30.44,29.99,25,7,33,0.00